Year,Month,Day,Hour,Minute,Value (Times are PST for insolation in W/m^2)
2017,03,01,00,00,0.00
2017,03,01,00,01,0.00
2017,03,01,00,02,0.00
2017,03,01,00,03,0.00
2017,03,01,00,04,0.00
2017,03,01,00,05,0.00
2017,03,01,00,06,0.00
2017,03,01,00,07,0.00
2017,03,01,00,08,0.00
2017,03,01,00,09,0.00
2017,03,01,00,10,0.00
2017,03,01,00,11,0.00
2017,03,01,00,12,0.00
2017,03,01,00,13,0.00
2017,03,01,00,14,0.00
2017,03,01,00,15,0.00
2017,03,01,00,16,0.00
2017,03,01,00,17,0.00
2017,03,01,00,18,0.00
2017,03,01,00,19,0.00
2017,03,01,00,20,0.00
2017,03,01,00,21,0.00
2017,03,01,00,22,0.00
2017,03,01,00,23,0.00
2017,03,01,00,24,0.00
2017,03,01,00,25,0.00
2017,03,01,00,26,0.00
2017,03,01,00,27,0.00
2017,03,01,00,28,0.00
2017,03,01,00,29,0.00
2017,03,01,00,30,0.00
2017,03,01,00,31,0.00
2017,03,01,00,32,0.00
2017,03,01,00,33,0.00
2017,03,01,00,34,0.00
2017,03,01,00,35,0.00
2017,03,01,00,36,0.00
2017,03,01,00,37,0.00
2017,03,01,00,38,0.00
2017,03,01,00,39,0.00
2017,03,01,00,40,0.00
2017,03,01,00,41,0.00
2017,03,01,00,42,0.00
2017,03,01,00,43,0.00
2017,03,01,00,44,0.00
2017,03,01,00,45,0.00
2017,03,01,00,46,0.00
2017,03,01,00,47,0.00
2017,03,01,00,48,0.00
2017,03,01,00,49,0.00
2017,03,01,00,50,0.00
2017,03,01,00,51,0.00
2017,03,01,00,52,0.00
2017,03,01,00,53,0.00
2017,03,01,00,54,0.00
2017,03,01,00,55,0.00
2017,03,01,00,56,0.00
2017,03,01,00,57,0.00
2017,03,01,00,58,0.00
2017,03,01,00,59,0.00
2017,03,01,01,00,0.00
2017,03,01,01,01,0.00
2017,03,01,01,02,0.00
2017,03,01,01,03,0.00
2017,03,01,01,04,0.00
2017,03,01,01,05,0.00
2017,03,01,01,06,0.00
2017,03,01,01,07,0.00
2017,03,01,01,08,0.00
2017,03,01,01,09,0.00
2017,03,01,01,10,0.00
2017,03,01,01,11,0.00
2017,03,01,01,12,0.00
2017,03,01,01,13,0.00
2017,03,01,01,14,0.00
2017,03,01,01,15,0.00
2017,03,01,01,16,0.00
2017,03,01,01,17,0.00
2017,03,01,01,18,0.00
2017,03,01,01,19,0.00
2017,03,01,01,20,0.00
2017,03,01,01,21,0.00
2017,03,01,01,22,0.00
2017,03,01,01,23,0.00
2017,03,01,01,24,0.00
2017,03,01,01,25,0.00
2017,03,01,01,26,0.00
2017,03,01,01,27,0.00
2017,03,01,01,28,0.00
2017,03,01,01,29,0.00
2017,03,01,01,30,0.00
2017,03,01,01,31,0.00
2017,03,01,01,32,0.00
2017,03,01,01,33,0.00
2017,03,01,01,34,0.00
2017,03,01,01,35,0.00
2017,03,01,01,36,0.00
2017,03,01,01,37,0.00
2017,03,01,01,38,0.00
2017,03,01,01,39,0.00
2017,03,01,01,40,0.00
2017,03,01,01,41,0.00
2017,03,01,01,42,0.00
2017,03,01,01,43,0.00
2017,03,01,01,44,0.00
2017,03,01,01,45,0.00
2017,03,01,01,46,0.00
2017,03,01,01,47,0.00
2017,03,01,01,48,0.00
2017,03,01,01,49,0.00
2017,03,01,01,50,0.00
2017,03,01,01,51,0.00
2017,03,01,01,52,0.00
2017,03,01,01,53,0.00
2017,03,01,01,54,0.00
2017,03,01,01,55,0.00
2017,03,01,01,56,0.00
2017,03,01,01,57,0.00
2017,03,01,01,58,0.00
2017,03,01,01,59,0.00
2017,03,01,02,00,0.00
2017,03,01,02,01,0.00
2017,03,01,02,02,0.00
2017,03,01,02,03,0.00
2017,03,01,02,04,0.00
2017,03,01,02,05,0.00
2017,03,01,02,06,0.00
2017,03,01,02,07,0.00
2017,03,01,02,08,0.00
2017,03,01,02,09,0.00
2017,03,01,02,10,0.00
2017,03,01,02,11,0.00
2017,03,01,02,12,0.00
2017,03,01,02,13,0.00
2017,03,01,02,14,0.00
2017,03,01,02,15,0.00
2017,03,01,02,16,0.00
2017,03,01,02,17,0.00
2017,03,01,02,18,0.00
2017,03,01,02,19,0.00
2017,03,01,02,20,0.00
2017,03,01,02,21,0.00
2017,03,01,02,22,0.00
2017,03,01,02,23,0.00
2017,03,01,02,24,0.00
2017,03,01,02,25,0.00
2017,03,01,02,26,0.00
2017,03,01,02,27,0.00
2017,03,01,02,28,0.00
2017,03,01,02,29,0.00
2017,03,01,02,30,0.00
2017,03,01,02,31,0.00
2017,03,01,02,32,0.00
2017,03,01,02,33,0.00
2017,03,01,02,34,0.00
2017,03,01,02,35,0.00
2017,03,01,02,36,0.00
2017,03,01,02,37,0.00
2017,03,01,02,38,0.00
2017,03,01,02,39,0.00
2017,03,01,02,40,0.00
2017,03,01,02,41,0.00
2017,03,01,02,42,0.00
2017,03,01,02,43,0.00
2017,03,01,02,44,0.00
2017,03,01,02,45,0.00
2017,03,01,02,46,0.00
2017,03,01,02,47,0.00
2017,03,01,02,48,0.00
2017,03,01,02,49,0.00
2017,03,01,02,50,0.00
2017,03,01,02,51,0.00
2017,03,01,02,52,0.00
2017,03,01,02,53,0.00
2017,03,01,02,54,0.00
2017,03,01,02,55,0.00
2017,03,01,02,56,0.00
2017,03,01,02,57,0.00
2017,03,01,02,58,0.00
2017,03,01,02,59,0.00
2017,03,01,03,00,0.00
2017,03,01,03,01,0.00
2017,03,01,03,02,0.00
2017,03,01,03,03,0.00
2017,03,01,03,04,0.00
2017,03,01,03,05,0.00
2017,03,01,03,06,0.00
2017,03,01,03,07,0.00
2017,03,01,03,08,0.00
2017,03,01,03,09,0.00
2017,03,01,03,10,0.00
2017,03,01,03,11,0.00
2017,03,01,03,12,0.00
2017,03,01,03,13,0.00
2017,03,01,03,14,0.00
2017,03,01,03,15,0.00
2017,03,01,03,16,0.00
2017,03,01,03,17,0.00
2017,03,01,03,18,0.00
2017,03,01,03,19,0.00
2017,03,01,03,20,0.00
2017,03,01,03,21,0.00
2017,03,01,03,22,0.00
2017,03,01,03,23,0.00
2017,03,01,03,24,0.00
2017,03,01,03,25,0.00
2017,03,01,03,26,0.00
2017,03,01,03,27,0.00
2017,03,01,03,28,0.00
2017,03,01,03,29,0.00
2017,03,01,03,30,0.00
2017,03,01,03,31,0.00
2017,03,01,03,32,0.00
2017,03,01,03,33,0.00
2017,03,01,03,34,0.00
2017,03,01,03,35,0.00
2017,03,01,03,36,0.00
2017,03,01,03,37,0.00
2017,03,01,03,38,0.00
2017,03,01,03,39,0.00
2017,03,01,03,40,0.00
2017,03,01,03,41,0.00
2017,03,01,03,42,0.00
2017,03,01,03,43,0.00
2017,03,01,03,44,0.00
2017,03,01,03,45,0.00
2017,03,01,03,46,0.00
2017,03,01,03,47,0.00
2017,03,01,03,48,0.00
2017,03,01,03,49,0.00
2017,03,01,03,50,0.00
2017,03,01,03,51,0.00
2017,03,01,03,52,0.00
2017,03,01,03,53,0.00
2017,03,01,03,54,0.00
2017,03,01,03,55,0.00
2017,03,01,03,56,0.00
2017,03,01,03,57,0.00
2017,03,01,03,58,0.00
2017,03,01,03,59,0.00
2017,03,01,04,00,0.00
2017,03,01,04,01,0.00
2017,03,01,04,02,0.00
2017,03,01,04,03,0.00
2017,03,01,04,04,0.00
2017,03,01,04,05,0.00
2017,03,01,04,06,0.00
2017,03,01,04,07,0.00
2017,03,01,04,08,0.00
2017,03,01,04,09,0.00
2017,03,01,04,10,0.00
2017,03,01,04,11,0.00
2017,03,01,04,12,0.00
2017,03,01,04,13,0.00
2017,03,01,04,14,0.00
2017,03,01,04,15,0.00
2017,03,01,04,16,0.00
2017,03,01,04,17,0.00
2017,03,01,04,18,0.00
2017,03,01,04,19,0.00
2017,03,01,04,20,0.00
2017,03,01,04,21,0.00
2017,03,01,04,22,0.00
2017,03,01,04,23,0.00
2017,03,01,04,24,0.00
2017,03,01,04,25,0.00
2017,03,01,04,26,0.00
2017,03,01,04,27,0.00
2017,03,01,04,28,0.00
2017,03,01,04,29,0.00
2017,03,01,04,30,0.00
2017,03,01,04,31,0.00
2017,03,01,04,32,0.00
2017,03,01,04,33,0.00
2017,03,01,04,34,0.00
2017,03,01,04,35,0.00
2017,03,01,04,36,0.00
2017,03,01,04,37,0.00
2017,03,01,04,38,0.00
2017,03,01,04,39,0.00
2017,03,01,04,40,0.00
2017,03,01,04,41,0.00
2017,03,01,04,42,0.00
2017,03,01,04,43,0.00
2017,03,01,04,44,0.00
2017,03,01,04,45,0.00
2017,03,01,04,46,0.00
2017,03,01,04,47,0.00
2017,03,01,04,48,0.00
2017,03,01,04,49,0.00
2017,03,01,04,50,0.00
2017,03,01,04,51,0.00
2017,03,01,04,52,0.00
2017,03,01,04,53,0.00
2017,03,01,04,54,0.00
2017,03,01,04,55,0.00
2017,03,01,04,56,0.00
2017,03,01,04,57,0.00
2017,03,01,04,58,0.00
2017,03,01,04,59,0.00
2017,03,01,05,00,0.00
2017,03,01,05,01,0.00
2017,03,01,05,02,0.00
2017,03,01,05,03,0.00
2017,03,01,05,04,0.00
2017,03,01,05,05,0.00
2017,03,01,05,06,0.00
2017,03,01,05,07,0.00
2017,03,01,05,08,0.00
2017,03,01,05,09,0.00
2017,03,01,05,10,0.00
2017,03,01,05,11,0.00
2017,03,01,05,12,0.00
2017,03,01,05,13,0.00
2017,03,01,05,14,0.00
2017,03,01,05,15,0.00
2017,03,01,05,16,0.00
2017,03,01,05,17,0.00
2017,03,01,05,18,0.00
2017,03,01,05,19,0.00
2017,03,01,05,20,0.00
2017,03,01,05,21,0.00
2017,03,01,05,22,0.00
2017,03,01,05,23,0.00
2017,03,01,05,24,0.00
2017,03,01,05,25,0.00
2017,03,01,05,26,0.00
2017,03,01,05,27,0.00
2017,03,01,05,28,0.00
2017,03,01,05,29,0.00
2017,03,01,05,30,0.00
2017,03,01,05,31,0.00
2017,03,01,05,32,0.00
2017,03,01,05,33,0.00
2017,03,01,05,34,0.00
2017,03,01,05,35,0.00
2017,03,01,05,36,0.00
2017,03,01,05,37,0.00
2017,03,01,05,38,0.00
2017,03,01,05,39,0.00
2017,03,01,05,40,0.00
2017,03,01,05,41,0.00
2017,03,01,05,42,0.00
2017,03,01,05,43,0.00
2017,03,01,05,44,0.00
2017,03,01,05,45,0.00
2017,03,01,05,46,0.00
2017,03,01,05,47,0.00
2017,03,01,05,48,0.00
2017,03,01,05,49,0.00
2017,03,01,05,50,0.00
2017,03,01,05,51,0.00
2017,03,01,05,52,0.00
2017,03,01,05,53,0.00
2017,03,01,05,54,0.00
2017,03,01,05,55,0.00
2017,03,01,05,56,0.00
2017,03,01,05,57,0.00
2017,03,01,05,58,0.00
2017,03,01,05,59,0.00
2017,03,01,06,00,0.00
2017,03,01,06,01,0.00
2017,03,01,06,02,0.00
2017,03,01,06,03,0.00
2017,03,01,06,04,0.00
2017,03,01,06,05,0.00
2017,03,01,06,06,0.00
2017,03,01,06,07,0.00
2017,03,01,06,08,0.00
2017,03,01,06,09,0.00
2017,03,01,06,10,0.00
2017,03,01,06,11,0.00
2017,03,01,06,12,0.00
2017,03,01,06,13,0.00
2017,03,01,06,14,0.00
2017,03,01,06,15,0.00
2017,03,01,06,16,0.00
2017,03,01,06,17,0.00
2017,03,01,06,18,0.00
2017,03,01,06,19,0.00
2017,03,01,06,20,0.00
2017,03,01,06,21,0.00
2017,03,01,06,22,0.00
2017,03,01,06,23,0.00
2017,03,01,06,24,0.00
2017,03,01,06,25,0.00
2017,03,01,06,26,0.00
2017,03,01,06,27,0.00
2017,03,01,06,28,0.00
2017,03,01,06,29,0.00
2017,03,01,06,30,0.00
2017,03,01,06,31,0.00
2017,03,01,06,32,0.00
2017,03,01,06,33,0.00
2017,03,01,06,34,0.00
2017,03,01,06,35,0.00
2017,03,01,06,36,0.00
2017,03,01,06,37,0.00
2017,03,01,06,38,0.00
2017,03,01,06,39,0.00
2017,03,01,06,40,0.00
2017,03,01,06,41,0.00
2017,03,01,06,42,0.00
2017,03,01,06,43,0.00
2017,03,01,06,44,0.00
2017,03,01,06,45,0.00
2017,03,01,06,46,0.00
2017,03,01,06,47,0.00
2017,03,01,06,48,0.00
2017,03,01,06,49,0.00
2017,03,01,06,50,0.00
2017,03,01,06,51,0.00
2017,03,01,06,52,0.00
2017,03,01,06,53,0.00
2017,03,01,06,54,0.00
2017,03,01,06,55,0.00
2017,03,01,06,56,0.00
2017,03,01,06,57,0.00
2017,03,01,06,58,0.00
2017,03,01,06,59,0.00
2017,03,01,07,00,0.00
2017,03,01,07,01,0.00
2017,03,01,07,02,0.00
2017,03,01,07,03,0.00
2017,03,01,07,04,0.00
2017,03,01,07,05,0.00
2017,03,01,07,06,0.00
2017,03,01,07,07,0.00
2017,03,01,07,08,0.00
2017,03,01,07,09,0.00
2017,03,01,07,10,4.10
2017,03,01,07,11,5.00
2017,03,01,07,12,5.00
2017,03,01,07,13,5.20
2017,03,01,07,14,7.00
2017,03,01,07,15,7.40
2017,03,01,07,16,9.00
2017,03,01,07,17,9.70
2017,03,01,07,18,11.00
2017,03,01,07,19,11.00
2017,03,01,07,20,11.50
2017,03,01,07,21,13.10
2017,03,01,07,22,14.00
2017,03,01,07,23,15.40
2017,03,01,07,24,16.00
2017,03,01,07,25,20.10
2017,03,01,07,26,22.80
2017,03,01,07,27,24.90
2017,03,01,07,28,25.00
2017,03,01,07,29,25.00
2017,03,01,07,30,24.50
2017,03,01,07,31,23.00
2017,03,01,07,32,23.00
2017,03,01,07,33,23.00
2017,03,01,07,34,23.00
2017,03,01,07,35,24.10
2017,03,01,07,36,25.00
2017,03,01,07,37,23.70
2017,03,01,07,38,23.00
2017,03,01,07,39,21.50
2017,03,01,07,40,21.00
2017,03,01,07,41,21.00
2017,03,01,07,42,21.00
2017,03,01,07,43,21.00
2017,03,01,07,44,20.70
2017,03,01,07,45,19.00
2017,03,01,07,46,19.00
2017,03,01,07,47,19.00
2017,03,01,07,48,19.00
2017,03,01,07,49,18.50
2017,03,01,07,50,18.50
2017,03,01,07,51,19.00
2017,03,01,07,52,20.30
2017,03,01,07,53,22.40
2017,03,01,07,54,25.30
2017,03,01,07,55,30.90
2017,03,01,07,56,32.90
2017,03,01,07,57,34.90
2017,03,01,07,58,35.00
2017,03,01,07,59,35.00
2017,03,01,08,00,34.50
2017,03,01,08,01,33.00
2017,03,01,08,02,33.70
2017,03,01,08,03,35.80
2017,03,01,08,04,37.00
2017,03,01,08,05,38.60
2017,03,01,08,06,40.00
2017,03,01,08,07,40.00
2017,03,01,08,08,40.00
2017,03,01,08,09,41.50
2017,03,01,08,10,43.60
2017,03,01,08,11,45.80
2017,03,01,08,12,44.10
2017,03,01,08,13,42.40
2017,03,01,08,14,46.00
2017,03,01,08,15,46.00
2017,03,01,08,16,45.50
2017,03,01,08,17,43.30
2017,03,01,08,18,42.00
2017,03,01,08,19,43.00
2017,03,01,08,20,45.00
2017,03,01,08,21,47.70
2017,03,01,08,22,52.10
2017,03,01,08,23,55.40
2017,03,01,08,24,59.00
2017,03,01,08,25,62.50
2017,03,01,08,26,63.00
2017,03,01,08,27,68.70
2017,03,01,08,28,70.00
2017,03,01,08,29,69.90
2017,03,01,08,30,68.20
2017,03,01,08,31,64.50
2017,03,01,08,32,63.70
2017,03,01,08,33,65.80
2017,03,01,08,34,68.00
2017,03,01,08,35,69.50
2017,03,01,08,36,70.00
2017,03,01,08,37,71.30
2017,03,01,08,38,70.60
2017,03,01,08,39,69.20
2017,03,01,08,40,69.00
2017,03,01,08,41,69.00
2017,03,01,08,42,69.00
2017,03,01,08,43,69.00
2017,03,01,08,44,69.00
2017,03,01,08,45,69.00
2017,03,01,08,46,71.30
2017,03,01,08,47,82.00
2017,03,01,08,48,86.50
2017,03,01,08,49,92.40
2017,03,01,08,50,96.60
2017,03,01,08,51,101.40
2017,03,01,08,52,105.90
2017,03,01,08,53,109.90
2017,03,01,08,54,113.30
2017,03,01,08,55,114.00
2017,03,01,08,56,114.00
2017,03,01,08,57,114.00
2017,03,01,08,58,113.10
2017,03,01,08,59,114.30
2017,03,01,09,00,116.00
2017,03,01,09,01,116.00
2017,03,01,09,02,116.00
2017,03,01,09,03,115.20
2017,03,01,09,04,113.50
2017,03,01,09,05,113.50
2017,03,01,09,06,115.20
2017,03,01,09,07,114.70
2017,03,01,09,08,114.00
2017,03,01,09,09,113.20
2017,03,01,09,10,111.40
2017,03,01,09,11,111.00
2017,03,01,09,12,111.00
2017,03,01,09,13,113.00
2017,03,01,09,14,113.10
2017,03,01,09,15,113.80
2017,03,01,09,16,113.30
2017,03,01,09,17,114.00
2017,03,01,09,18,114.00
2017,03,01,09,19,114.00
2017,03,01,09,20,113.50
2017,03,01,09,21,110.60
2017,03,01,09,22,107.70
2017,03,01,09,23,104.90
2017,03,01,09,24,102.50
2017,03,01,09,25,98.60
2017,03,01,09,26,97.10
2017,03,01,09,27,94.90
2017,03,01,09,28,90.90
2017,03,01,09,29,90.00
2017,03,01,09,30,90.00
2017,03,01,09,31,90.80
2017,03,01,09,32,94.30
2017,03,01,09,33,99.00
2017,03,01,09,34,103.00
2017,03,01,09,35,104.50
2017,03,01,09,36,106.20
2017,03,01,09,37,107.00
2017,03,01,09,38,107.00
2017,03,01,09,39,105.50
2017,03,01,09,40,104.10
2017,03,01,09,41,102.20
2017,03,01,09,42,98.20
2017,03,01,09,43,98.00
2017,03,01,09,44,98.60
2017,03,01,09,45,102.60
2017,03,01,09,46,105.50
2017,03,01,09,47,106.00
2017,03,01,09,48,102.50
2017,03,01,09,49,98.60
2017,03,01,09,50,96.00
2017,03,01,09,51,93.90
2017,03,01,09,52,91.70
2017,03,01,09,53,91.00
2017,03,01,09,54,91.00
2017,03,01,09,55,90.20
2017,03,01,09,56,90.00
2017,03,01,09,57,90.00
2017,03,01,09,58,93.20
2017,03,01,09,59,95.40
2017,03,01,10,00,100.50
2017,03,01,10,01,111.00
2017,03,01,10,02,117.30
2017,03,01,10,03,120.40
2017,03,01,10,04,120.50
2017,03,01,10,05,120.50
2017,03,01,10,06,123.30
2017,03,01,10,07,128.20
2017,03,01,10,08,133.60
2017,03,01,10,09,140.30
2017,03,01,10,10,145.30
2017,03,01,10,11,142.40
2017,03,01,10,12,137.20
2017,03,01,10,13,135.20
2017,03,01,10,14,137.70
2017,03,01,10,15,142.80
2017,03,01,10,16,144.90
2017,03,01,10,17,141.00
2017,03,01,10,18,137.40
2017,03,01,10,19,135.00
2017,03,01,10,20,136.00
2017,03,01,10,21,139.30
2017,03,01,10,22,142.90
2017,03,01,10,23,145.40
2017,03,01,10,24,150.00
2017,03,01,10,25,156.70
2017,03,01,10,26,161.60
2017,03,01,10,27,163.00
2017,03,01,10,28,162.30
2017,03,01,10,29,165.90
2017,03,01,10,30,171.00
2017,03,01,10,31,170.40
2017,03,01,10,32,167.70
2017,03,01,10,33,163.00
2017,03,01,10,34,160.00
2017,03,01,10,35,160.00
2017,03,01,10,36,162.90
2017,03,01,10,37,165.00
2017,03,01,10,38,165.00
2017,03,01,10,39,165.00
2017,03,01,10,40,165.00
2017,03,01,10,41,165.00
2017,03,01,10,42,165.00
2017,03,01,10,43,165.00
2017,03,01,10,44,165.00
2017,03,01,10,45,165.00
2017,03,01,10,46,165.00
2017,03,01,10,47,165.00
2017,03,01,11,21,253.00
2017,03,01,11,22,253.00
2017,03,01,11,23,253.00
2017,03,01,11,24,256.00
2017,03,01,11,25,262.70
2017,03,01,11,26,271.20
2017,03,01,11,27,280.50
2017,03,01,11,28,288.40
2017,03,01,11,29,292.00
2017,03,01,11,30,291.20
2017,03,01,11,31,289.60
2017,03,01,11,32,291.70
2017,03,01,11,33,276.80
2017,03,01,11,34,256.30
2017,03,01,11,35,242.70
2017,03,01,11,36,232.00
2017,03,01,11,37,225.20
2017,03,01,11,38,219.40
2017,03,01,11,39,215.00
2017,03,01,11,40,211.50
2017,03,01,11,41,206.50
2017,03,01,11,42,199.30
2017,03,01,11,43,192.70
2017,03,01,11,44,190.00
2017,03,01,11,45,190.60
2017,03,01,11,46,194.10
2017,03,01,11,47,197.00
2017,03,01,11,48,200.40
2017,03,01,11,49,206.50
2017,03,01,11,50,207.00
2017,03,01,11,51,207.00
2017,03,01,11,52,206.40
2017,03,01,11,53,204.60
2017,03,01,11,54,202.50
2017,03,01,11,55,200.40
2017,03,01,11,56,201.80
2017,03,01,11,57,205.80
2017,03,01,11,58,211.50
2017,03,01,11,59,216.70
2017,03,01,12,00,222.10
2017,03,01,12,01,227.50
2017,03,01,12,02,229.30
2017,03,01,12,03,230.00
2017,03,01,12,04,229.50
2017,03,01,12,05,226.90
2017,03,01,12,06,222.70
2017,03,01,12,07,220.40
2017,03,01,12,08,218.60
2017,03,01,12,09,218.00
2017,03,01,12,10,218.00
2017,03,01,12,11,214.40
2017,03,01,12,12,211.10
2017,03,01,12,13,211.00
2017,03,01,12,14,211.40
2017,03,01,12,15,214.80
2017,03,01,12,16,218.50
2017,03,01,12,17,220.00
2017,03,01,12,18,220.00
2017,03,01,12,19,220.00
2017,03,01,12,20,220.50
2017,03,01,12,21,221.00
2017,03,01,12,22,223.50
2017,03,01,12,23,227.90
2017,03,01,12,24,231.30
2017,03,01,12,25,233.60
2017,03,01,12,26,234.00
2017,03,01,12,27,230.20
2017,03,01,12,28,226.60
2017,03,01,12,29,222.00
2017,03,01,12,30,214.70
2017,03,01,12,31,207.60
2017,03,01,12,32,202.70
2017,03,01,12,33,198.80
2017,03,01,12,34,197.00
2017,03,01,12,35,197.00
2017,03,01,12,36,198.70
2017,03,01,12,37,201.30
2017,03,01,12,38,200.60
2017,03,01,12,39,199.20
2017,03,01,12,40,199.00
2017,03,01,12,41,199.00
2017,03,01,12,42,197.10
2017,03,01,12,43,194.80
2017,03,01,12,44,192.60
2017,03,01,12,45,189.20
2017,03,01,12,46,186.00
2017,03,01,12,47,185.70
2017,03,01,12,48,185.00
2017,03,01,12,49,185.00
2017,03,01,12,50,185.00
2017,03,01,12,51,185.60
2017,03,01,12,52,189.80
2017,03,01,12,53,202.00
2017,03,01,12,54,216.70
2017,03,01,12,55,235.50
2017,03,01,12,56,249.90
2017,03,01,12,57,252.90
2017,03,01,12,58,252.80
2017,03,01,12,59,250.90
2017,03,01,13,00,249.60
2017,03,01,13,01,246.90
2017,03,01,13,02,243.70
2017,03,01,13,03,243.40
2017,03,01,13,04,242.70
2017,03,01,13,05,242.00
2017,03,01,13,06,247.60
2017,03,01,13,07,255.50
2017,03,01,13,08,259.40
2017,03,01,13,09,256.20
2017,03,01,13,10,251.70
2017,03,01,13,11,248.30
2017,03,01,13,12,244.20
2017,03,01,13,13,240.80
2017,03,01,13,14,238.70
2017,03,01,13,15,236.40
2017,03,01,13,16,233.50
2017,03,01,13,17,231.40
2017,03,01,13,18,229.60
2017,03,01,13,19,229.00
2017,03,01,13,20,228.00
2017,03,01,13,21,224.70
2017,03,01,13,22,221.70
2017,03,01,13,23,220.30
2017,03,01,13,24,217.00
2017,03,01,13,25,213.50
2017,03,01,13,26,206.70
2017,03,01,13,27,199.30
2017,03,01,13,28,192.50
2017,03,01,13,29,187.60
2017,03,01,13,30,185.00
2017,03,01,13,31,185.20
2017,03,01,13,32,187.30
2017,03,01,13,33,191.10
2017,03,01,13,34,195.70
2017,03,01,13,35,201.60
2017,03,01,13,36,208.00
2017,03,01,13,37,217.40
2017,03,01,13,38,223.90
2017,03,01,13,39,228.00
2017,03,01,13,40,229.00
2017,03,01,13,41,231.70
2017,03,01,13,42,232.00
2017,03,01,13,43,229.70
2017,03,01,13,44,226.70
2017,03,01,13,45,224.20
2017,03,01,13,46,220.20
2017,03,01,13,47,217.30
2017,03,01,13,48,216.00
2017,03,01,13,49,215.10
2017,03,01,13,50,213.50
2017,03,01,13,51,210.70
2017,03,01,13,52,207.10
2017,03,01,13,53,206.00
2017,03,01,13,54,200.70
2017,03,01,13,55,199.00
2017,03,01,13,56,199.00
2017,03,01,13,57,200.00
2017,03,01,13,58,202.00
2017,03,01,13,59,202.00
2017,03,01,14,00,201.40
2017,03,01,14,01,198.50
2017,03,01,14,02,196.30
2017,03,01,14,03,193.90
2017,03,01,14,04,191.10
2017,03,01,14,05,190.00
2017,03,01,14,06,191.10
2017,03,01,14,07,192.00
2017,03,01,14,08,192.00
2017,03,01,14,09,192.00
2017,03,01,14,10,188.70
2017,03,01,14,11,185.30
2017,03,01,14,12,179.30
2017,03,01,14,13,175.60
2017,03,01,14,14,171.60
2017,03,01,14,15,168.20
2017,03,01,14,16,164.50
2017,03,01,14,17,162.70
2017,03,01,14,18,161.20
2017,03,01,14,19,159.10
2017,03,01,14,20,158.00
2017,03,01,14,21,158.00
2017,03,01,14,22,156.70
2017,03,01,14,23,152.40
2017,03,01,14,24,148.70
2017,03,01,14,25,144.70
2017,03,01,14,26,144.00
2017,03,01,14,27,145.90
2017,03,01,14,28,148.00
2017,03,01,14,29,149.00
2017,03,01,14,30,155.60
2017,03,01,14,31,158.50
2017,03,01,14,32,158.70
2017,03,01,14,33,154.10
2017,03,01,14,34,148.70
2017,03,01,14,35,142.30
2017,03,01,14,36,136.70
2017,03,01,14,37,134.40
2017,03,01,14,38,132.60
2017,03,01,14,39,130.50
2017,03,01,14,40,128.40
2017,03,01,14,41,128.00
2017,03,01,14,42,127.00
2017,03,01,14,43,124.60
2017,03,01,14,44,120.60
2017,03,01,14,45,117.00
2017,03,01,14,46,111.90
2017,03,01,14,47,107.70
2017,03,01,14,48,104.60
2017,03,01,14,49,104.00
2017,03,01,14,50,104.50
2017,03,01,14,51,107.30
2017,03,01,14,52,110.30
2017,03,01,14,53,112.40
2017,03,01,14,54,113.80
2017,03,01,14,55,115.60
2017,03,01,14,56,117.80
2017,03,01,14,57,118.00
2017,03,01,14,58,118.00
2017,03,01,14,59,118.00
2017,03,01,15,00,118.00
2017,03,01,15,01,117.50
2017,03,01,15,02,115.30
2017,03,01,15,03,114.00
2017,03,01,15,04,114.90
2017,03,01,15,05,117.00
2017,03,01,15,06,119.10
2017,03,01,15,07,120.60
2017,03,01,15,08,122.40
2017,03,01,15,09,126.00
2017,03,01,15,10,127.00
2017,03,01,15,11,127.00
2017,03,01,15,12,127.00
2017,03,01,15,13,124.90
2017,03,01,15,14,122.30
2017,03,01,15,15,117.20
2017,03,01,15,16,112.60
2017,03,01,15,17,108.30
2017,03,01,15,18,106.20
2017,03,01,15,19,104.50
2017,03,01,15,20,104.00
2017,03,01,15,21,102.90
2017,03,01,15,22,102.00
2017,03,01,15,23,102.00
2017,03,01,15,24,102.00
2017,03,01,15,25,102.00
2017,03,01,15,26,102.00
2017,03,01,15,27,102.00
2017,03,01,15,28,107.00
2017,03,01,15,29,107.30
2017,03,01,15,30,109.40
2017,03,01,15,31,111.00
2017,03,01,15,32,111.70
2017,03,01,15,33,113.00
2017,03,01,15,34,113.00
2017,03,01,15,35,113.50
2017,03,01,15,36,114.00
2017,03,01,15,37,114.00
2017,03,01,15,38,113.30
2017,03,01,15,39,111.50
2017,03,01,15,40,107.70
2017,03,01,15,41,104.30
2017,03,01,15,42,102.10
2017,03,01,15,43,100.00
2017,03,01,15,44,100.00
2017,03,01,15,45,100.40
2017,03,01,15,46,102.00
2017,03,01,15,47,102.00
2017,03,01,15,48,101.20
2017,03,01,15,49,100.00
2017,03,01,15,50,99.00
2017,03,01,15,51,97.40
2017,03,01,15,52,95.70
2017,03,01,15,53,92.10
2017,03,01,15,54,90.20
2017,03,01,15,55,88.40
2017,03,01,15,56,86.30
2017,03,01,15,57,86.00
2017,03,01,15,58,84.00
2017,03,01,15,59,84.00
2017,03,01,16,00,84.00
2017,03,01,16,01,84.00
2017,03,01,16,02,83.70
2017,03,01,16,03,83.00
2017,03,01,16,04,83.00
2017,03,01,16,05,83.00
2017,03,01,16,06,83.00
2017,03,01,16,07,83.00
2017,03,01,16,08,83.00
2017,03,01,16,09,83.00
2017,03,01,16,10,83.00
2017,03,01,16,11,81.20
2017,03,01,16,12,79.10
2017,03,01,16,13,77.00
2017,03,01,16,14,77.00
2017,03,01,16,15,76.80
2017,03,01,16,16,76.00
2017,03,01,16,17,76.00
2017,03,01,16,18,76.00
2017,03,01,16,19,76.00
2017,03,01,16,20,76.50
2017,03,01,16,21,77.00
2017,03,01,16,22,77.00
2017,03,01,16,23,79.70
2017,03,01,16,24,82.50
2017,03,01,16,25,83.00
2017,03,01,16,26,83.00
2017,03,01,16,27,81.10
2017,03,01,16,28,80.90
2017,03,01,16,29,78.70
2017,03,01,16,30,77.00
2017,03,01,16,31,76.70
2017,03,01,16,32,76.00
2017,03,01,16,33,76.00
2017,03,01,16,34,75.10
2017,03,01,16,35,73.00
2017,03,01,16,36,72.00
2017,03,01,16,37,72.00
2017,03,01,16,38,70.60
2017,03,01,16,39,69.20
2017,03,01,16,40,69.00
2017,03,01,16,41,67.30
2017,03,01,16,42,65.10
2017,03,01,16,43,64.90
2017,03,01,16,44,62.90
2017,03,01,16,45,62.00
2017,03,01,16,46,61.50
2017,03,01,16,47,59.40
2017,03,01,16,48,56.50
2017,03,01,16,49,53.60
2017,03,01,16,50,51.00
2017,03,01,16,51,47.90
2017,03,01,16,52,45.10
2017,03,01,16,53,41.30
2017,03,01,16,54,39.20
2017,03,01,16,55,37.40
2017,03,01,16,56,35.20
2017,03,01,16,57,35.00
2017,03,01,16,58,35.00
2017,03,01,16,59,35.00
2017,03,01,17,00,35.00
2017,03,01,17,01,35.00
2017,03,01,17,02,35.00
2017,03,01,17,03,35.70
2017,03,01,17,04,37.00
2017,03,01,17,05,37.00
2017,03,01,17,06,37.00
2017,03,01,17,07,37.00
2017,03,01,17,08,37.00
2017,03,01,17,09,35.50
2017,03,01,17,10,35.00
2017,03,01,17,11,35.00
2017,03,01,17,12,33.10
2017,03,01,17,13,33.00
2017,03,01,17,14,32.00
2017,03,01,17,15,31.60
2017,03,01,17,16,30.00
2017,03,01,17,17,29.40
2017,03,01,17,18,28.00
2017,03,01,17,19,27.10
2017,03,01,17,20,26.00
2017,03,01,17,21,26.00
2017,03,01,17,22,25.40
2017,03,01,17,23,25.00
2017,03,01,17,24,25.00
2017,03,01,17,25,25.00
2017,03,01,17,26,23.30
2017,03,01,17,27,23.00
2017,03,01,17,28,22.80
2017,03,01,17,29,21.00
2017,03,01,17,30,20.60
2017,03,01,17,31,19.00
2017,03,01,17,32,18.70
2017,03,01,17,33,18.00
2017,03,01,17,34,17.10
2017,03,01,17,35,16.00
2017,03,01,17,36,14.90
2017,03,01,17,37,14.00
2017,03,01,17,38,14.00
2017,03,01,17,39,12.50
2017,03,01,17,40,12.00
2017,03,01,17,41,11.10
2017,03,01,17,42,11.00
2017,03,01,17,43,11.00
2017,03,01,17,44,10.70
2017,03,01,17,45,9.00
2017,03,01,17,46,9.00
2017,03,01,17,47,8.30
2017,03,01,17,48,7.00
2017,03,01,17,49,7.00
2017,03,01,17,50,6.00
2017,03,01,17,51,5.00
2017,03,01,17,52,5.00
2017,03,01,17,53,5.00
2017,03,01,17,54,1.20
2017,03,01,17,55,0.00
2017,03,01,17,56,0.00